Volver al catálogo

DELTA 1 DEB

ActivoPO
NORAD 21466·DEBRIS·🇺🇸 United States

Lanzado Jun 12, 1975 desde Vandenberg Space Force Base

Loading…

Próximos Pases (próximas 24 horas)

TLE

ActualizadoSource: Space-Track

Época: Sep 14, 2026, 10:23 UTC

1 21466U 75052FA  26257.43276270  .00000132  00000-0  39628-3 0  9998
2 21466  99.6830  56.3456 0135572 273.4653 109.5724 13.22232455703746

Sigue DELTA 1 DEB en tiempo real con AllMySat

Download on the App Store